| time (UTC) | temp F | wind direction | speed MPH | gust MPH | rain 1hr in | rain 24hr in | rain mn in | humidity % | barometer mb |
| 20260507231506 | 70 | 359 | 0.0 | 4.0 | 0.00 | 0.00 | 0.00 | 66 | 1014.6 |
| 20260507230016 | 71 | 91 | 2.0 | 5.0 | 0.00 | 0.00 | 0.00 | 65 | 1014.5 |
| 20260507224514 | 71 | 335 | 0.0 | 4.0 | 0.00 | 0.00 | 0.00 | 64 | 1014.9 |
| 20260507223008 | 71 | 327 | 0.0 | 5.0 | 0.00 | 0.00 | 0.00 | 63 | 1014.9 |
| 20260507221509 | 72 | 79 | 2.0 | 6.0 | 0.00 | 0.00 | 0.00 | 62 | 1014.7 |
| 20260507220009 | 71 | 75 | 2.0 | 6.0 | 0.00 | 0.00 | 0.00 | 62 | 1014.6 |
| 20260507213027 | 71 | 19 | 0.0 | 4.0 | 0.00 | 0.00 | 0.00 | 65 | 1015.1 |
| 20260507211507 | 71 | 94 | 3.0 | 6.0 | 0.00 | 0.00 | 0.00 | 59 | 1014.8 |
| 20260507210116 | 72 | 335 | 2.0 | 6.0 | 0.00 | 0.00 | 0.00 | 57 | 1015.5 |
| 20260507204515 | 72 | 354 | 3.0 | 7.0 | 0.00 | 0.00 | 0.00 | 58 | 1015.3 |
| 20260507203016 | 73 | 9 | 3.0 | 7.0 | 0.00 | 0.00 | 0.00 | 58 | 1015.3 |
| 20260507201620 | 72 | 325 | 1.0 | 7.0 | 0.00 | 0.00 | 0.00 | 58 | 1015.4 |
| 20260507200018 | 72 | 334 | 3.0 | 8.0 | 0.00 | 0.00 | 0.00 | 57 | 1015.7 |
| 20260507194530 | 72 | 260 | 4.0 | 11.0 | 0.00 | 0.00 | 0.00 | 55 | 1016.0 |
| 20260507193108 | 73 | 277 | 5.0 | 10.0 | 0.00 | 0.00 | 0.00 | 56 | 1016.0 |
| 20260507191511 | 71 | 37 | 4.0 | 9.0 | 0.00 | 0.00 | 0.00 | 58 | 1016.0 |
| 20260507190019 | 71 | 52 | 4.0 | 10.0 | 0.00 | 0.00 | 0.00 | 59 | 1016.1 |
| 20260507184527 | 72 | 13 | 1.0 | 12.0 | 0.00 | 0.00 | 0.00 | 60 | 1016.1 |
| 20260507183022 | 71 | 25 | 4.0 | 8.0 | 0.00 | 0.00 | 0.00 | 60 | 1016.0 |
| 20260507181607 | 70 | 36 | 1.0 | 10.0 | 0.00 | 0.00 | 0.00 | 62 | 1016.5 |
| 20260507180022 | 69 | 297 | 3.0 | 10.0 | 0.00 | 0.00 | 0.00 | 61 | 1016.3 |
| 20260507174608 | 69 | 135 | 4.0 | 8.0 | 0.00 | 0.00 | 0.00 | 62 | 1016.7 |
| 20260507173125 | 68 | 54 | 2.0 | 9.0 | 0.00 | 0.00 | 0.00 | 63 | 1017.2 |
| 20260507171515 | 68 | 56 | 3.0 | 9.0 | 0.00 | 0.00 | 0.00 | 61 | 1017.5 |
| 20260507170011 | 67 | 354 | 4.0 | 11.0 | 0.00 | 0.00 | 0.00 | 64 | 1017.6 |
| 20260507164520 | 67 | 97 | 2.0 | 12.0 | 0.00 | 0.00 | 0.00 | 60 | 1017.6 |
| 20260507163119 | 67 | 316 | 4.0 | 10.0 | 0.00 | 0.00 | 0.00 | 62 | 1017.8 |
| 20260507160007 | 66 | 332 | 2.0 | 10.0 | 0.00 | 0.00 | 0.00 | 62 | 1017.7 |
| 20260507154505 | 66 | 4 | 2.0 | 8.0 | 0.00 | 0.00 | 0.00 | 60 | 1017.8 |
| 20260507153108 | 65 | 83 | 3.0 | 9.0 | 0.00 | 0.00 | 0.00 | 63 | 1017.9 |
| 20260507151506 | 64 | 11 | 4.0 | 13.0 | 0.00 | 0.00 | 0.00 | 64 | 1017.9 |
| 20260507150109 | 63 | 32 | 3.0 | 8.0 | 0.00 | 0.00 | 0.00 | 66 | 1018.1 |
| 20260507144523 | 62 | 354 | 2.0 | 7.0 | 0.00 | 0.00 | 0.00 | 70 | 1018.3 |
| 20260507143120 | 60 | 53 | 1.0 | 8.0 | 0.00 | 0.00 | 0.00 | 70 | 1018.4 |
| 20260507140107 | 58 | 328 | 3.0 | 8.0 | 0.00 | 0.00 | 0.00 | 76 | 1017.6 |
| 20260507134509 | 57 | 334 | 3.0 | 7.0 | 0.00 | 0.00 | 0.00 | 78 | 1017.6 |
| 20260507133107 | 56 | 359 | 4.0 | 7.0 | 0.00 | 0.00 | 0.00 | 80 | 1018.0 |
| 20260507130006 | 55 | 333 | 2.0 | 7.0 | 0.00 | 0.00 | 0.00 | 82 | 1017.4 |
| 20260507124512 | 55 | 343 | 1.0 | 9.0 | 0.00 | 0.00 | 0.00 | 83 | 1017.6 |
| 20260507123008 | 54 | 354 | 3.0 | 8.0 | 0.00 | 0.00 | 0.00 | 83 | 1017.5 |
| 20260507121608 | 54 | 344 | 4.0 | 9.0 | 0.00 | 0.00 | 0.00 | 83 | 1017.1 |
| 20260507120009 | 53 | 323 | 1.0 | 7.0 | 0.00 | 0.00 | 0.00 | 85 | 1017.2 |
| 20260507114510 | 53 | 339 | 1.0 | 6.0 | 0.00 | 0.00 | 0.00 | 85 | 1016.7 |
| 20260507113017 | 53 | 318 | 1.0 | 6.0 | 0.00 | 0.00 | 0.00 | 85 | 1016.0 |
| 20260507111510 | 53 | 41 | 1.0 | 4.0 | 0.00 | 0.00 | 0.00 | 86 | 1015.7 |
| 20260507110105 | 53 | 328 | 0.0 | 6.0 | 0.00 | 0.00 | 0.00 | 85 | 1015.6 |
| 20260507104606 | 53 | 83 | 2.0 | 8.0 | 0.00 | 0.00 | 0.00 | 84 | 1015.4 |
| 20260507103021 | 53 | 345 | 1.0 | 4.0 | 0.00 | 0.00 | 0.00 | 84 | 1015.5 |
| 20260507101606 | 53 | 25 | 0.0 | 5.0 | 0.00 | 0.00 | 0.00 | 84 | 1015.1 |
| 20260507100123 | 54 | 354 | 0.0 | 0.0 | 0.00 | 0.00 | 0.00 | 83 | 1015.4 |
| 20260507094506 | 54 | 59 | 0.0 | 4.0 | 0.00 | 0.00 | 0.00 | 83 | 1014.8 |
| 20260507093107 | 54 | 13 | 0.0 | 6.0 | 0.00 | 0.00 | 0.00 | 83 | 1015.2 |
| 20260507091506 | 54 | 77 | 0.0 | 5.0 | 0.00 | 0.00 | 0.00 | 82 | 1015.1 |
| 20260507090007 | 54 | 62 | 1.0 | 6.0 | 0.00 | 0.00 | 0.00 | 83 | 1015.2 |
| 20260507084617 | 54 | 4 | 2.0 | 7.0 | 0.00 | 0.00 | 0.00 | 83 | 1014.9 |
| 20260507083021 | 55 | 335 | 3.0 | 9.0 | 0.00 | 0.00 | 0.00 | 83 | 1015.2 |
| 20260507081520 | 55 | 52 | 3.0 | 7.0 | 0.00 | 0.00 | 0.00 | 83 | 1015.1 |
| 20260507080012 | 55 | 11 | 0.0 | 6.0 | 0.00 | 0.00 | 0.00 | 84 | 1015.4 |
| 20260507074515 | 54 | 359 | 2.0 | 7.0 | 0.00 | 0.00 | 0.00 | 84 | 1015.6 |
| 20260507073013 | 54 | 334 | 2.0 | 8.0 | 0.00 | 0.00 | 0.00 | 84 | 1015.7 |
| 20260507071513 | 54 | 4 | 3.0 | 8.0 | 0.00 | 0.00 | 0.00 | 84 | 1015.8 |
| 20260507070113 | 54 | 83 | 2.0 | 9.0 | 0.00 | 0.00 | 0.00 | 84 | 1015.6 |
| 20260507064515 | 54 | 4 | 3.0 | 7.0 | 0.00 | 0.00 | 0.00 | 85 | 1016.0 |
| 20260507063009 | 54 | 11 | 3.0 | 8.0 | 0.00 | 0.00 | 0.00 | 84 | 1015.8 |
| 20260507061612 | 54 | 35 | 1.0 | 8.0 | 0.00 | 0.00 | 0.00 | 86 | 1015.5 |
| 20260507060003 | 54 | 4 | 2.0 | 5.0 | 0.00 | 0.00 | 0.00 | 87 | 1016.0 |
| 20260507054506 | 54 | 332 | 3.0 | 9.0 | 0.00 | 0.00 | 0.00 | 87 | 1016.0 |
| 20260507053018 | 54 | 354 | 4.0 | 9.0 | 0.00 | 0.00 | 0.00 | 88 | 1015.9 |
| 20260507051605 | 54 | 12 | 3.0 | 9.0 | 0.00 | 0.00 | 0.00 | 89 | 1015.5 |
| 20260507050014 | 54 | 330 | 5.0 | 10.0 | 0.00 | 0.00 | 0.00 | 89 | 1015.5 |
| 20260507044521 | 55 | 354 | 3.0 | 7.0 | 0.00 | 0.00 | 0.00 | 90 | 1015.4 |
| 20260507041518 | 55 | 41 | 0.0 | 7.0 | 0.00 | 0.00 | 0.00 | 90 | 1014.9 |
| 20260507040019 | 56 | 322 | 0.0 | 5.0 | 0.00 | 0.00 | 0.00 | 90 | 1015.0 |
| 20260507034607 | 56 | 326 | 3.0 | 9.0 | 0.00 | 0.00 | 0.00 | 89 | 1014.7 |
| 20260507033008 | 56 | 335 | 3.0 | 7.0 | 0.00 | 0.00 | 0.00 | 88 | 1014.8 |
| 20260507031506 | 56 | 27 | 1.0 | 7.0 | 0.00 | 0.00 | 0.00 | 88 | 1014.6 |
| 20260507030009 | 56 | 324 | 2.0 | 9.0 | 0.00 | 0.00 | 0.00 | 88 | 1014.3 |
| 20260507024510 | 56 | 347 | 2.0 | 7.0 | 0.00 | 0.00 | 0.00 | 89 | 1014.3 |
| 20260507023009 | 56 | 66 | 3.0 | 9.0 | 0.00 | 0.00 | 0.00 | 88 | 1014.0 |
| 20260507021506 | 57 | 13 | 3.0 | 9.0 | 0.00 | 0.00 | 0.00 | 87 | 1014.0 |
| 20260507020121 | 57 | 26 | 5.0 | 10.0 | 0.00 | 0.00 | 0.00 | 86 | 1013.6 |
| 20260507014512 | 58 | 8 | 4.0 | 12.0 | 0.00 | 0.00 | 0.00 | 86 | 1013.3 |
| 20260507013005 | 58 | 307 | 4.0 | 10.0 | 0.00 | 0.00 | 0.00 | 87 | 1012.8 |
| 20260507011607 | 58 | 4 | 2.0 | 8.0 | 0.00 | 0.00 | 0.00 | 87 | 1012.3 |
| 20260507010008 | 58 | 288 | 4.0 | 10.0 | 0.00 | 0.00 | 0.00 | 86 | 1012.2 |
| 20260507004505 | 59 | 312 | 3.0 | 10.0 | 0.00 | 0.00 | 0.00 | 86 | 1012.2 |
| 20260507003006 | 59 | 342 | 2.0 | 11.0 | 0.00 | 0.00 | 0.00 | 85 | 1012.2 |
| 20260507001529 | 59 | 95 | 4.0 | 9.0 | 0.00 | 0.00 | 0.00 | 86 | 1012.1 |
| 20260507000024 | 60 | 343 | 5.0 | 9.0 | 0.00 | 0.00 | 0.00 | 85 | 1011.8 |
| 20260506234515 | 60 | 42 | 3.0 | 11.0 | 0.00 | 0.00 | 0.00 | 84 | 1011.7 |
| 20260506233111 | 60 | 341 | 2.0 | 8.0 | 0.00 | 0.00 | 0.00 | 85 | 1011.8 |